Location: Ferintosh
(52.7647°N, 112.9692°W)
Time: 23:15:36
(UTC+00:00)

Vanguard 1 Rocket - Pass Details

Date: 21 May 2024
Orbit: 649 x 4221 km, 34.3° (Epoch: 13 June)

Event Time Altitude Azimuth Distance (km) Brightness Sun altitude
Rises 14:57:46 0° 200° (SSW) 8,302 12.1 29.5°
Reaches altitude 10° 15:06:39 10° 186° (S) 6,863 12.0 30.8°
Maximum altitude 15:18:43 19° 151° (SSE) 5,214 12.0 32.6°
Drops below altitude 10° 15:27:40 10° 115° (ESE) 4,965 12.5 34.0°
Sets 15:32:22 0° 98° (E) 5,390 12.4 34.7°
